User: anonymous   Login
Location: Unspecified
(0.0000°N, 0.0000°E)
Time: 18:52:36
(UTC+00:00)
Language:

Isis 2 - Orbit

View from above orbital plane
View from above orbital plane
View from above satellite
View from above satellite

Ground track
Ground track

The orbit data is extracted from the following two-line orbital elements,

1  5104U 71024A   17145.57749170 -.00000001 +00000-0 -60835-4 0  9991
2  5104 088.1634 124.6576 0045177 054.5199 081.4371 12.67835081135363
Epoch (UTC): 25 May 2017 13:51:35
Eccentricity: 0.0045177
inclination: 88.1634°
perigee height: 1355 km
apogee height: 1426 km
right ascension of ascending node: 124.6576°
argument of perigee: 54.5199°
revolutions per day: 12.67835081
mean anomaly at epoch: 81.4371°
orbit number at epoch: 13536

The dashed part of the orbit path shows where the satellite is in the earth's shadow,  

DLR